TimeEST,TemperatureF,Dew PointF,Humidity,Sea Level PressureIn,VisibilityMPH,Wind Direction,Wind SpeedMPH,Gust SpeedMPH,PrecipitationIn,Events,Conditions,WindDirDegrees,DateUTC
12:53 AM,28.0,24.1,85,30.09,6.0,West,17.3,23.0,0.00,,Overcast,280,2012-12-30 05:53:00
1:53 AM,28.0,23.0,81,30.12,8.0,West,10.4,19.6,0.00,,Overcast,280,2012-12-30 06:53:00
2:53 AM,27.0,23.0,85,30.16,7.0,West,12.7,-,N/A,,Overcast,270,2012-12-30 07:53:00
3:46 AM,26.6,23.0,86,30.16,7.0,West,11.5,-,N/A,,Overcast,280,2012-12-30 08:46:00
3:53 AM,27.0,23.0,85,30.20,7.0,West,8.1,-,N/A,,Overcast,280,2012-12-30 08:53:00
4:53 AM,27.0,23.0,85,30.22,8.0,West,9.2,-,N/A,,Overcast,270,2012-12-30 09:53:00
5:53 AM,27.0,21.0,78,30.27,10.0,West,15.0,20.7,N/A,,Overcast,280,2012-12-30 10:53:00
6:53 AM,27.0,21.0,78,30.31,10.0,West,12.7,-,N/A,,Overcast,270,2012-12-30 11:53:00
7:31 AM,26.6,21.2,80,30.29,8.0,West,10.4,-,N/A,,Overcast,260,2012-12-30 12:31:00
7:53 AM,25.0,21.0,85,30.34,8.0,West,15.0,-,N/A,,Overcast,260,2012-12-30 12:53:00
8:53 AM,25.0,21.9,88,30.36,7.0,WSW,6.9,-,N/A,,Overcast,250,2012-12-30 13:53:00
9:53 AM,25.0,21.0,85,30.39,7.0,WSW,11.5,-,N/A,,Overcast,240,2012-12-30 14:53:00
10:53 AM,25.0,19.9,81,30.41,8.0,West,9.2,18.4,N/A,,Overcast,260,2012-12-30 15:53:00
11:53 AM,25.0,19.9,81,30.40,9.0,SW,9.2,-,N/A,,Overcast,230,2012-12-30 16:53:00
12:53 PM,25.0,19.9,81,30.40,10.0,WSW,10.4,-,N/A,,Overcast,240,2012-12-30 17:53:00
1:53 PM,25.0,19.0,78,30.40,10.0,WSW,12.7,-,N/A,,Overcast,240,2012-12-30 18:53:00
2:53 PM,25.0,18.0,75,30.40,10.0,West,10.4,-,N/A,,Overcast,270,2012-12-30 19:53:00
3:53 PM,25.0,18.0,75,30.41,10.0,West,5.8,-,N/A,,Mostly Cloudy,260,2012-12-30 20:53:00
4:05 PM,24.8,17.6,74,30.37,10.0,West,4.6,-,N/A,,Scattered Clouds,260,2012-12-30 21:05:00
4:53 PM,24.1,17.1,75,30.40,10.0,WSW,4.6,-,N/A,,Clear,250,2012-12-30 21:53:00
5:53 PM,21.9,18.0,85,30.40,10.0,Calm,Calm,-,N/A,,Clear,0,2012-12-30 22:53:00
6:53 PM,19.9,17.1,89,30.40,10.0,SSW,3.5,-,N/A,,Clear,200,2012-12-30 23:53:00
7:53 PM,18.0,15.1,88,30.42,8.0,SSW,4.6,-,N/A,,Clear,200,2012-12-31 00:53:00
8:53 PM,18.0,16.0,92,30.41,10.0,South,5.8,-,N/A,,Clear,190,2012-12-31 01:53:00
9:53 PM,21.0,17.1,85,30.40,10.0,SSW,4.6,-,N/A,,Clear,210,2012-12-31 02:53:00
10:53 PM,16.0,15.1,96,30.40,9.0,Calm,Calm,-,N/A,,Clear,0,2012-12-31 03:53:00
11:53 PM,16.0,15.1,96,30.37,8.0,Calm,Calm,-,N/A,,Clear,0,2012-12-31 04:53:00